Terug naar catalogus

STARLINK-38187

ActiefCommunicatieSSO
NORAD 100259·PAYLOAD·🇺🇸 United States

Gelanceerd Aug 8, 2026 vanaf Vandenberg Space Force Base

Loading…

Volgende Passages (komende 24 uur)

TLE

VersSource: Space-Track

Epoch: Sep 14, 2026, 16:12 UTC

1 A0259U 26181P   26257.67530708  .00212125  00000-0  13781-2 0  9997
2 A0259  97.2839 300.9852 0002126  12.3554 347.7763 15.75355657  7041

Volg STARLINK-38187 in realtime met AllMySat

Download on the App Store